When you browse on this site, cookies collect data to enhance your experience and personalize the content and advertising you see.
Visit our Privacy Policy to learn more. By continuing to use the site, you agree to this use of cookies and data.
  • In United Kingdom
  • List of Countries
  • For 7 days
  • Water Temperature
  • Satellite Maps
  • Weather Map
  • Weather Widgets
  • user-avatar
    Login

    Hourly Weather Kalemie

    Today, 26 March, Tuesday

    Time Temperature Precipitation Wind Pressure Humidity
    00:00 +27°C° 0 mm 2 mps 705 mmHg 69%
    01:00 +27°C° 0 mm 2 mps 705 mmHg 71%
    02:00 +27°C° 0 mm 2 mps 705 mmHg 73%
    03:00 +27°C° 0 mm 2 mps 705 mmHg 73%
    04:00 +27°C° 0 mm 2 mps 706 mmHg 74%
    05:00 +27°C° 0 mm 2 mps 706 mmHg 74%
    06:00 +27°C° 0.1 mm 2 mps 706 mmHg 74%
    07:00 +27°C° 0.1 mm 2 mps 706 mmHg 74%
    08:00 +27°C° 0.1 mm 2 mps 707 mmHg 74%
    09:00 +31°C° 0 mm 1 mps 707 mmHg 58%
    10:00 +36°C° 0 mm 1 mps 708 mmHg 42%
    11:00 +39°C° 0 mm 0 mps 709 mmHg 26%
    12:00 +41°C° 0 mm 1 mps 708 mmHg 28%
    13:00 +39°C° 0 mm 1 mps 707 mmHg 29%
    14:00 +36°C° 0 mm 1 mps 705 mmHg 30%
    15:00 +36°C° 0 mm 1 mps 705 mmHg 32%
    16:00 +35°C° 0 mm 1 mps 705 mmHg 33%
    17:00 +35°C° 0 mm 1 mps 704 mmHg 35%
    18:00 +33°C° 0 mm 1 mps 705 mmHg 38%
    19:00 +32°C° 0 mm 1 mps 705 mmHg 41%
    20:00 +30°C° 0 mm 1 mps 705 mmHg 45%
    21:00 +30°C° 0 mm 1 mps 705 mmHg 45%
    22:00 +27°C° 0 mm 0 mps 706 mmHg 46%
    23:00 +26°C° 0 mm 0 mps 706 mmHg 47%

    Tomorrow, 27 March, Wednesday

    Time Temperature Precipitation Wind Pressure Humidity
    00:00 +28°C° 0 mm 1 mps 706 mmHg 50%
    01:00 +27°C° 0 mm 1 mps 705 mmHg 52%
    02:00 +27°C° 0 mm 2 mps 705 mmHg 55%
    03:00 +26°C° 0 mm 2 mps 705 mmHg 59%
    04:00 +26°C° 0 mm 2 mps 705 mmHg 64%
    05:00 +25°C° 0 mm 1 mps 705 mmHg 68%
    06:00 +26°C° 0 mm 1 mps 705 mmHg 64%
    07:00 +27°C° 0 mm 1 mps 706 mmHg 61%
    08:00 +28°C° 0 mm 1 mps 707 mmHg 57%
    09:00 +30°C° 0 mm 1 mps 707 mmHg 51%
    10:00 +32°C° 0 mm 1 mps 708 mmHg 45%
    11:00 +34°C° 0 mm 1 mps 708 mmHg 39%
    12:00 +36°C° 0 mm 2 mps 707 mmHg 38%
    13:00 +36°C° 0 mm 3 mps 707 mmHg 36%
    14:00 +36°C° 0 mm 3 mps 706 mmHg 35%
    15:00 +36°C° 0 mm 3 mps 706 mmHg 36%
    16:00 +35°C° 0 mm 3 mps 705 mmHg 37%
    17:00 +35°C° 0 mm 3 mps 705 mmHg 37%
    18:00 +32°C° 0 mm 2 mps 705 mmHg 40%
    19:00 +31°C° 0 mm 2 mps 705 mmHg 43%
    20:00 +29°C° 0 mm 1 mps 705 mmHg 46%
    21:00 +28°C° 0 mm 1 mps 705 mmHg 48%
    22:00 +28°C° 0 mm 1 mps 705 mmHg 50%
    23:00 +27°C° 0 mm 1 mps 705 mmHg 52%

    Day after tomorrow, 28 March, Thursday

    Time Temperature Precipitation Wind Pressure Humidity
    00:00 +27°C° 0 mm 1 mps 705 mmHg 54%
    01:00 +26°C° 0 mm 1 mps 704 mmHg 55%
    02:00 +26°C° 0 mm 1 mps 704 mmHg 57%
    03:00 +26°C° 0 mm 1 mps 704 mmHg 58%
    04:00 +25°C° 0 mm 1 mps 704 mmHg 60%
    05:00 +25°C° 0 mm 1 mps 704 mmHg 61%
    06:00 +27°C° 0 mm 1 mps 705 mmHg 55%
    07:00 +29°C° 0 mm 1 mps 706 mmHg 50%
    08:00 +32°C° 0 mm 1 mps 707 mmHg 44%
    09:00 +34°C° 0 mm 1 mps 708 mmHg 36%
    10:00 +38°C° 0 mm 2 mps 708 mmHg 29%
    11:00 +41°C° 0 mm 2 mps 708 mmHg 22%
    12:00 +41°C° 0 mm 2 mps 707 mmHg 22%
    13:00 +40°C° 0 mm 2 mps 706 mmHg 21%
    14:00 +40°C° 0 mm 2 mps 705 mmHg 21%
    15:00 +39°C° 0 mm 2 mps 704 mmHg 22%
    16:00 +37°C° 0 mm 1 mps 704 mmHg 24%
    17:00 +36°C° 0 mm 1 mps 703 mmHg 26%
    18:00 +35°C° 0.2 mm 1 mps 704 mmHg 30%
    19:00 +33°C° 0.2 mm 1 mps 704 mmHg 35%
    20:00 +31°C° 0.2 mm 1 mps 704 mmHg 39%
    21:00 +30°C° 0 mm 1 mps 705 mmHg 42%
    22:00 +29°C° 0 mm 1 mps 705 mmHg 45%
    23:00 +28°C° 0 mm 1 mps 705 mmHg 48%

    29 March, Friday

    Time Temperature Precipitation Wind Pressure Humidity
    00:00 +28°C° 0 mm 2 mps 705 mmHg 53%
    01:00 +28°C° 0 mm 3 mps 705 mmHg 57%
    02:00 +27°C° 0 mm 3 mps 704 mmHg 62%
    03:00 +27°C° 0 mm 3 mps 704 mmHg 66%
    04:00 +26°C° 0 mm 2 mps 705 mmHg 71%
    05:00 +25°C° 0 mm 1 mps 705 mmHg 76%
    06:00 +26°C° 0 mm 1 mps 706 mmHg 71%
    07:00 +28°C° 0 mm 2 mps 707 mmHg 66%
    08:00 +29°C° 0 mm 2 mps 707 mmHg 61%
    09:00 +34°C° 0 mm 1 mps 708 mmHg 48%
    10:00 +40°C° 0 mm 1 mps 708 mmHg 36%
    11:00 +42°C° 0 mm 0 mps 709 mmHg 24%
    12:00 +41°C° 0 mm 0 mps 707 mmHg 22%
    13:00 +44°C° 0 mm 1 mps 706 mmHg 20%
    14:00 +44°C° 0 mm 1 mps 705 mmHg 18%
    15:00 +42°C° 0 mm 1 mps 704 mmHg 20%
    16:00 +40°C° 0 mm 1 mps 704 mmHg 22%
    17:00 +37°C° 0 mm 1 mps 703 mmHg 24%
    18:00 +36°C° 0 mm 1 mps 703 mmHg 27%
    19:00 +34°C° 0 mm 1 mps 704 mmHg 30%
    20:00 +32°C° 0 mm 1 mps 704 mmHg 33%
    21:00 +31°C° 0 mm 1 mps 704 mmHg 36%
    22:00 +31°C° 0 mm 1 mps 705 mmHg 39%
    23:00 +30°C° 0 mm 2 mps 705 mmHg 42%

    30 March, Saturday

    Time Temperature Precipitation Wind Pressure Humidity
    00:00 +29°C° 0 mm 2 mps 704 mmHg 47%
    01:00 +28°C° 0 mm 2 mps 703 mmHg 52%
    02:00 +28°C° 0 mm 2 mps 703 mmHg 57%
    03:00 +27°C° 0 mm 2 mps 703 mmHg 57%
    04:00 +27°C° 0 mm 1 mps 703 mmHg 57%
    05:00 +27°C° 0 mm 1 mps 704 mmHg 57%
    06:00 +28°C° 0 mm 2 mps 704 mmHg 55%
    07:00 +29°C° 0 mm 2 mps 705 mmHg 52%
    08:00 +30°C° 0 mm 2 mps 706 mmHg 49%
    09:00 +30°C° 0 mm 2 mps 706 mmHg 49%
    10:00 +31°C° 0 mm 2 mps 706 mmHg 49%
    11:00 +31°C° 0 mm 1 mps 705 mmHg 49%
    12:00 +35°C° 0 mm 2 mps 705 mmHg 42%
    13:00 +37°C° 0 mm 2 mps 705 mmHg 34%
    14:00 +40°C° 0 mm 2 mps 704 mmHg 27%
    15:00 +40°C° 0 mm 1 mps 704 mmHg 27%
    16:00 +39°C° 0 mm 1 mps 704 mmHg 26%
    17:00 +39°C° 0 mm 1 mps 704 mmHg 26%
    18:00 +36°C° 0 mm 1 mps 704 mmHg 30%
    19:00 +33°C° 0 mm 1 mps 704 mmHg 35%
    20:00 +30°C° 0 mm 1 mps 704 mmHg 39%
    21:00 +30°C° 0 mm 1 mps 704 mmHg 43%
    22:00 +29°C° 0 mm 1 mps 704 mmHg 46%
    23:00 +28°C° 0 mm 1 mps 704 mmHg 49%

    31 March, Sunday

    Time Temperature Precipitation Wind Pressure Humidity
    00:00 +28°C° 0 mm 1 mps 703 mmHg 52%
    01:00 +27°C° 0 mm 1 mps 703 mmHg 55%
    02:00 +27°C° 0 mm 1 mps 702 mmHg 58%
    03:00 +27°C° 0 mm 1 mps 702 mmHg 58%
    04:00 +26°C° 0 mm 1 mps 703 mmHg 59%
    05:00 +26°C° 0 mm 2 mps 703 mmHg 60%
    06:00 +28°C° 0 mm 2 mps 704 mmHg 54%
    07:00 +30°C° 0 mm 2 mps 704 mmHg 49%
    08:00 +32°C° 0 mm 1 mps 705 mmHg 43%
    09:00 +35°C° 0 mm 2 mps 705 mmHg 37%
    10:00 +38°C° 0 mm 2 mps 706 mmHg 30%
    11:00 +42°C° 0 mm 3 mps 706 mmHg 23%
    12:00 +41°C° 0 mm 2 mps 705 mmHg 23%
    13:00 +41°C° 0 mm 2 mps 704 mmHg 22%
    14:00 +41°C° 0 mm 1 mps 703 mmHg 21%
    15:00 +40°C° 0 mm 2 mps 703 mmHg 22%
    16:00 +40°C° 0 mm 2 mps 703 mmHg 22%
    17:00 +40°C° 0 mm 2 mps 703 mmHg 23%
    18:00 +38°C° 0 mm 2 mps 703 mmHg 28%
    19:00 +35°C° 0 mm 2 mps 704 mmHg 34%
    20:00 +33°C° 0 mm 3 mps 704 mmHg 40%
    21:00 +31°C° 0 mm 2 mps 704 mmHg 42%
    22:00 +30°C° 0 mm 2 mps 704 mmHg 45%
    23:00 +29°C° 0 mm 1 mps 704 mmHg 48%
    Show more